This is the latest recevied weather packets stored in our database for station/object IU7URP-13. If no packets are shown the sender has not sent any weather packets the latest 10 day(s).
| Time | Temp. | Humidity | Pressure | Rain* | Wind** | Luminosity | Snow |
|---|---|---|---|---|---|---|---|
| 1777671396 | 13.33° C | 99% | 1022 hPa | - | - | - | - |
| 1777670195 | 13.33° C | 99% | 1021.9 hPa | - | - | - | - |
| 1777668994 | 13.89° C | 99% | 1021.9 hPa | - | - | - | - |
| 1777667792 | 13.33° C | 99% | 1021.8 hPa | - | - | - | - |
| 1777666591 | 13.89° C | 99% | 1021.7 hPa | - | - | - | - |
| 1777665390 | 13.33° C | 99% | 1021.8 hPa | - | - | - | - |
| 1777664188 | 13.33° C | 99% | 1021.7 hPa | - | - | - | - |
| 1777662987 | 13.33° C | 99% | 1021.6 hPa | - | - | - | - |
| 1777661786 | 13.33° C | 99% | 1021.3 hPa | - | - | - | - |
| 1777660584 | 13.33° C | 99% | 1021.1 hPa | - | - | - | - |
| 1777659383 | 13.33° C | 99% | 1021.1 hPa | - | - | - | - |
| 1777658182 | 13.33° C | 99% | 1020.8 hPa | - | - | - | - |
| 1777656980 | 13.89° C | 99% | 1020.6 hPa | - | - | - | - |
| 1777655779 | 13.89° C | 99% | 1020.6 hPa | - | - | - | - |
| 1777654577 | 14.44° C | 99% | 1020.3 hPa | - | - | - | - |
| 1777653376 | 15° C | 99% | 1020.3 hPa | - | - | - | - |
| 1777652174 | 15.56° C | 99% | 1020.4 hPa | - | - | - | - |
| 1777650973 | 16.11° C | 88% | 1020.2 hPa | - | - | - | - |
| 1777649771 | 16.11° C | 93% | 1020.3 hPa | - | - | - | - |
| 1777647366 | 16.11° C | 85% | 1020.4 hPa | - | - | - | - |
| 1777646165 | 15.56° C | 80% | 1019.9 hPa | - | - | - | - |
| 1777644964 | 16.11° C | 71% | 1020.4 hPa | - | - | - | - |
| 1777643762 | 15.56° C | 67% | 1020.6 hPa | - | - | - | - |
| 1777642561 | 15.56° C | 60% | 1020.3 hPa | - | - | - | - |
| 1777641360 | 15.56° C | 78% | 1020.7 hPa | - | - | - | - |
* Rain since midnight (hover to see other rain measurements)
** Current wind speed in m/s (hover to see current wind gust speed)